Location: Newark
(52.3735°N, 16.9806°E)
Time: 03:52:18
(UTC+00:00)

LilacSat-2 - Pass Details

Date: 01 December 2021
Orbit: 511 x 532 km, 97.5° (Epoch: 16 January)

Event Time Altitude Azimuth Distance (km) Brightness Sun altitude
Rises 16:29:34 0° 194° (SSW) 2,624 ? -15.5°
Reaches altitude 10° 16:31:54 10° 207° (SSW) 1,746 ? -15.8°
Maximum altitude 16:35:07 26° 266° (W) 1,043 ? -16.3°
Drops below altitude 10° 16:38:23 10° 325° (NW) 1,771 ? -16.8°
Sets 16:40:45 0° 338° (NNW) 2,670 ? -17.1°
